Weather in Solnechnyy

Russia / Khanty-Mansi Autonomous Okrug — Yugra     61°16′40″N   73°11′11″E
temp.,
°C
wind,
m/s
gust,
m/s
humid.,
%
clouds,
%
prec.,
mm/h
press.,
hPa
HPBL,
m
15 april, thu
thu1523:00+3ssw41099100 0.2 1020234
02:00+5ssw6159992 0.0 1016376
05:00+5sw6169457 0.0 1014378
08:00+7sw7179256 0.0 1012502
11:00+12wsw8178099 0.0 1010715
14:00+14w9156772 0.0 10081154
17:00+10nw81380100 0.1 1009994
20:00+1nnw2698100 1.3 1013290
16 april, fri
fri1623:00+2wnw4886100 1.6 1014484
02:00+1wnw51180100 0.0 1014580
05:00−1nnw6117489 0.0 1016952
08:00−4n71069100 0.1 10201123
11:00−4n79464 0.1 10251327
14:00−4n68380 0.0 10271396
17:00−4n45390 0.0 10281057
20:00−5nne1149100 0.0 1027125
17 april, sat
sat1723:00−4ssw3645100 0.0 1025515
02:00−4ssw51145100 0.0 1021655
05:00−3ssw81545100 0.0 1017860
08:00−3sw71492100 1.9 1013950
11:00−1wnw101370100 2.9 10131445
14:00−3nnw812500 0.4 10171151
17:00−4nnw694976 0.4 10191212
20:00−6nnw4757100 0.0 1018894
18 april, sun
sun1823:00−8nne3460100 0.0 1017509
02:00−9ne4558100 0.0 1016540
05:00−10ne5861100 0.0 1017555
08:00−10ne71065100 0.0 1017680
11:00−8ne81055100 0.0 10171047
14:00−7nne81149100 0.0 10191379
17:00−7nne71051100 0.0 10211595
20:00−10n8116378 0.0 10221214
19 april, mon
mon1923:00−11n71375100 0.1 1022962
02:00−13n714725 0.0 1023738
05:00−14n715705 0.0 1025632
08:00−12n8136115 0.0 1026732
11:00−9n8115475 0.0 1027961
14:00−6n71052100 0.0 10281146
17:00−6n71053100 0.0 10291295
20:00−7n6116129 0.0 10291274